Location: Arnreit
(48.5333°N, 14.0000°E)
Time: 21:36:02
(UTC+00:00)

Daily predictions for brighter satellites

Satellite Brightness Start Highest point End
(mag) Time Altitude Azimuth Time Altitude Azimuth Time Altitude Azimuth
Cosmos 1371 Rocket 4.1 17:43:53 10° S 17:49:04 59° ESE 17:54:13 10° NNE
Cosmos 2360 Rocket 3.2 17:44:42 10° NW 17:50:11 51° WSW 17:55:36 10° S
IGS 5A 3.8 17:46:46 10° SE 17:50:41 44° ENE 17:54:38 10° N
Resurs 01 Rocket 3.4 17:49:31 10° E 17:51:59 15° ENE 17:54:28 10° NNE
Cosmos 1818 3.6 17:47:55 10° NW 17:53:25 80° NE 17:58:52 10° SE
Landsat 7 4.5 17:51:08 10° SE 17:55:23 35° ENE 17:59:39 10° N
MINOTAUR 4 R/B 4.4 17:53:25 10° NNE 17:56:38 37° E 17:59:50 10° S
Cosmos 2056 Rocket 3.4 17:52:24 10° S 17:57:28 65° ESE 18:02:32 10° NNE
Cosmos 1733 4.4 17:54:44 10° SE 17:57:37 21° E 18:00:30 10° NE
Cosmos 1626 1.9 17:54:56 10° N 17:58:31 69° E 18:02:03 10° SSE
Cosmos 1703 Rocket 3.7 17:55:23 10° N 17:59:48 56° ENE 18:04:08 10° SSE
Cosmos 1802 Rocket 4.2 17:54:13 10° N 18:00:19 52° ENE 18:06:28 10° SSE
Meteor 1-23 Rocket 4.5 17:55:37 10° NNW 18:01:10 75° W 18:06:42 10° S
Cosmos 1437 Rocket 3.0 17:57:25 10° SSW 18:01:29 82° WNW 18:05:33 10° N
Feng Yun 1-1 Rocket 4.3 17:56:23 10° SSE 18:01:49 62° ENE 18:07:26 10° N
CZ-4 R/B 1.2 17:58:16 10° SSE 18:02:04 72° ENE 18:05:58 10° N
Cosmos 2098 Rocket 4.3 17:57:48 10° SSE 18:02:47 40° E 18:08:42 10° NNE
Iridium 4 Rocket 3.9 17:59:16 10° NNE 18:02:53 27° ENE 18:06:25 10° SE
SL-16 R/B 4.1 18:00:12 10° N 18:03:34 16° NE 18:06:56 10° ENE
Resurs 1-3 4.1 18:05:05 10° SE 18:09:08 39° ENE 18:13:12 10° N
Cosmos 1624 Rocket 4.0 18:05:19 10° SSW 18:10:36 83° ESE 18:15:59 10° NNE
Cosmos 1470 Rocket 3.9 18:07:05 10° SSW 18:11:33 74° W 18:16:03 10° N
Cosmos 2016 Rocket 4.1 18:07:52 10° N 18:13:51 54° ENE 18:19:50 10° SSE
NOSS 0 Rocket 4.1 18:08:39 10° NNW 18:14:46 57° NE 18:20:49 10° SE
Cosmos 1420 Rocket 4.0 18:11:44 10° SSW 18:16:59 88° ESE 18:22:13 10° NNE
Cosmos 2123 Rocket 4.2 18:12:04 10° SSE 18:18:06 51° E 18:24:13 10° NNE
Cosmos 2173 Rocket 4.1 18:12:37 10° N 18:19:03 87° E 18:25:26 10° S
Okean-O 3.3 18:15:10 10° SE 18:19:13 36° ENE 18:23:17 10° N
SPOT 1/Viking Rocket 4.3 18:15:26 10° SE 18:20:02 33° ENE 18:24:40 10° N
Okean 2 3.8 18:18:24 10° N 18:22:16 40° ENE 18:26:06 10° SE
Timation 1 Rocket 4.3 18:17:03 10° SSW 18:23:02 79° ESE 18:29:05 10° NNE
Cosmos 1000 Rocket 4.4 18:17:55 10° S 18:24:04 83° E 18:30:14 10° N
Spot 1 4.4 18:21:51 10° NNE 18:26:47 67° ESE 18:31:51 10° S
Okean O Rocket 1.8 18:23:05 10° S 18:27:30 75° WSW 18:31:55 10° NNW
GEOS 3 Rocket 3.8 18:23:56 10° NE 18:29:22 87° NW 18:34:45 10° SW
Cosmos 2242 Rocket 3.6 18:24:57 10° N 18:29:31 66° ENE 18:34:02 10° SSE
Cosmos 2100 Rocket 4.3 18:23:10 10° NNW 18:29:34 76° W 18:35:52 10° S
YAOGAN 1 4.2 18:25:48 10° SSW 18:29:47 36° W 18:33:48 10° NNW
CSL-04 Rocket 3.7 18:26:22 10° SSE 18:31:51 66° ENE 18:37:21 10° N
USA 215 3.8 18:25:44 10° NE 18:32:08 58° NNW 18:38:30 10° W
ISS -3.1 18:30:05 10° W 18:33:22 50° N 18:35:45 17° ENE
Cosmos 1452 Rocket 3.8 18:30:08 10° S 18:35:07 45° ESE 18:40:09 10° NNE
SL-27 R/B 3.0 18:31:53 10° SSW 18:35:07 57° WNW 18:38:21 10° NNE
Cosmos 2237 Rocket 2.5 18:33:58 10° NNW 18:39:29 51° NE 18:43:19 19° SE
Exosat Rocket 4.1 18:36:19 10° SSW 18:41:30 74° WNW 18:48:16 10° NNE
Cosmos 1766 4.3 18:42:38 24° E 18:42:38 24° E 18:45:41 10° NE
USA 186 1.8 18:40:56 10° S 18:44:00 73° WSW 18:47:08 10° NNW
H-2A R/B 4.1 18:47:34 19° ENE 18:48:17 19° ENE 18:51:26 10° NNE
Cosmos 1741 Rocket 3.9 18:45:23 10° NNW 18:50:39 76° ENE 18:54:39 17° SSE
SAR-Lupe-3 4.5 18:49:15 22° SSE 18:51:26 67° ENE 18:55:00 10° N
IRS-1C Rocket 4.1 18:50:13 15° SSE 18:54:39 67° ENE 18:59:55 10° N
Cosmos 968 Rocket 4.0 18:50:28 10° N 18:55:20 40° ENE 18:57:25 28° ESE
Cosmos 1805 3.0 18:54:39 10° S 18:58:28 84° E 19:02:19 10° N
SJ 16-02 3.5 18:57:13 10° NNE 18:58:56 12° NE 18:59:20 12° NE
Lacrosse 5 rocket 2.0 18:55:10 10° SSW 18:59:02 33° SE 18:59:08 33° SE
Cosmos 1980 3.6 18:55:10 10° NNW 19:00:53 75° ENE 19:04:23 24° SE
Cosmos 2219 Rocket 4.0 18:56:51 10° NW 19:01:46 31° WSW 19:06:38 10° SSW
SJ-6B 4.0 18:59:11 10° S 19:02:55 42° W 19:06:37 10° NNW
Cosmos 1975 4.0 18:59:13 10° SSW 19:03:00 43° WNW 19:06:50 10° N
ERS-1 Rocket 4.4 19:04:51 20° ENE 19:05:24 20° ENE 19:09:02 10° NNE
Cosmos 1726 2.1 19:04:27 10° SSW 19:07:57 75° W 19:11:29 10° N
Cosmos 2233 Rocket 3.9 19:02:06 10° N 19:08:17 83° E 19:14:14 11° S
Ariane Rocket 3.7 19:09:43 31° E 19:10:46 34° ENE 19:15:19 10° N
Cosmos 2061 Rocket 4.3 19:05:59 10° NNW 19:12:26 74° W 19:18:48 10° S
Cosmos 1869 Rocket 4.1 19:08:15 10° SSW 19:12:30 58° WNW 19:16:48 10° N
COSMOS 2428 3.9 19:09:42 10° NW 19:15:00 40° WSW 19:20:17 10° S
Landsat 5 3.1 19:11:20 10° NNE 19:15:11 67° ESE 19:17:14 26° S
SL-14 R/B 3.7 19:13:03 10° NNW 19:16:50 57° W 19:19:24 19° S
Cosmos 2297 Rocket 2.1 19:15:36 10° SSW 19:21:09 64° ESE 19:26:45 10° NNE
IRS-1A Rocket 4.4 19:20:53 33° SE 19:23:34 65° ENE 19:29:23 10° N
ATLAS 3B R/B 4.5 19:18:30 10° NW 19:24:26 25° N 19:30:27 10° ENE
Cosmos 1867 3.5 19:19:36 10° SW 19:25:03 85° SE 19:30:33 10° NE
Resurs 01 Rocket 1.7 19:25:55 33° S 19:27:54 77° WSW 19:32:20 10° NNW
Meteor 2-5 Rocket 4.1 19:25:17 10° N 19:30:54 48° ENE 19:32:00 43° ESE
SPOT 3 Rocket 4.1 19:32:02 39° ENE 19:32:26 39° ENE 19:37:17 10° N
CZ-4C R/B 3.5 19:27:09 10° NW 19:33:34 43° NE 19:36:50 30° E
CENTAUR R/B 4.1 19:25:48 10° NW 19:33:38 47° WSW 19:41:25 13° S
NOSS 3-2 (C) 4.2 19:26:26 10° NW 19:33:54 73° SW 19:38:47 29° SSE
Cosmos 1271 Rocket 3.8 19:36:59 33° NNE 19:36:59 33° NNE 19:39:10 10° NNE
MOS 1 4.2 19:33:10 32° SSE 19:36:00 88° WSW 19:41:46 10° NNW
Cosmos 2227 Rocket 2.2 19:31:29 10° S 19:36:58 53° ESE 19:42:27 10° NE
Terra 2.9 19:42:45 29° NE 19:42:45 29° NE 19:46:10 10° N
USA 238 DEB 4.0 19:40:13 10° NW 19:47:31 73° SW 19:50:51 37° SSE
USA 238 4.0 19:40:20 10° NW 19:47:37 74° SW 19:50:55 38° SSE
MetOp-A 4.0 19:46:21 49° S 19:47:51 86° WSW 19:53:05 10° NNW
SL-16 R/B 2.3 19:43:20 10° NNW 19:48:58 59° ENE 19:49:38 55° E
Cosmos 1674 Rocket 3.5 19:48:24 10° N 19:52:42 82° WNW 19:52:42 82° WNW
Cosmos 1733 Rocket 3.5 19:53:01 34° SW 19:54:42 58° WNW 19:58:59 10° N
CARTOSAT-1 3.9 19:58:45 55° WSW 19:59:06 58° W 20:03:21 10° NNW
SPOT 5 3.0 20:02:23 60° NNE 20:02:23 60° NNE 20:06:34 10° N
Cosmos 1378 Rocket 3.9 19:59:36 10° NNW 20:03:58 61° W 20:04:03 61° WSW
Cosmos 2221 Rocket 4.2 20:00:42 10° NNW 20:05:00 51° W 20:05:26 49° WSW
Cosmos 1464 Rocket 3.9 20:01:01 10° N 20:07:25 81° E 20:08:27 64° SSE
BREEZE-M DEB (TANK) 4.3 20:05:49 10° WNW 20:08:22 30° W 20:08:22 30° W
ISS -1.5 20:07:08 10° WNW 20:08:42 25° WNW 20:08:42 25° WNW
USA 215 4.2 20:10:32 21° ENE 20:14:32 43° N 20:20:37 10° WNW
ADEOS Rocket 3.1 20:15:26 64° E 20:15:59 67° ENE 20:22:56 10° N
Meteor 1-22 Rocket 4.3 20:20:17 73° SSW 20:20:57 89° W 20:27:04 10° NNE
H-2A R/B 3.4 20:23:55 50° WNW 20:23:55 50° WNW 20:27:33 10° NNW
Cosmos 2237 Rocket 3.7 20:18:28 10° NW 20:23:17 30° WSW 20:25:11 24° SW
ATLAS CENTAUR R/B 4.2 20:20:30 10° WSW 20:34:51 66° NNW 20:40:10 18° NE
Lacrosse 5 rocket 3.8 20:33:38 10° WSW 20:34:34 16° WSW 20:34:34 16° WSW
SJ 16-02 2.9 20:33:50 10° NNW 20:36:14 32° NNW 20:36:14 32° NNW
ERS-1 Rocket 3.7 20:44:49 51° NW 20:44:49 51° NW 20:48:44 10° NNW
FALCON 9 R/B 4.3 20:32:59 10° W 20:45:13 29° SSW 20:45:15 29° SSW
Meteor 1-24 Rocket 4.3 20:41:11 10° NNW 20:46:56 53° W 20:47:15 52° WSW
Ariane Rocket 4.2 20:49:52 37° W 20:49:52 37° W 20:54:23 10° NNW
Cosmos 1634 Rocket 4.5 20:43:25 10° N 20:48:28 52° NNE 20:48:28 52° NNE
BREEZE-M DEB (TANK) 4.1 20:47:01 10° WNW 20:50:43 41° W 20:50:43 41° W
NOSS 3-4 (A) 4.5 20:55:36 34° NNE 20:55:36 34° NNE 20:59:07 10° NE
Cosmos 1943 4.0 20:50:26 10° NNW 20:54:31 44° N 20:54:31 44° N
Cosmos 2297 Rocket 4.1 21:00:50 10° WSW 21:05:38 28° NW 21:10:29 10° NNE
Cosmos 2344 4.4 20:58:23 10° NW 21:06:23 52° NE 21:08:50 43° ENE
Cosmos 2034 Rocket 4.5 21:02:11 10° NNW 21:07:51 53° W 21:07:51 53° W
Cosmos 2219 4.2 21:13:55 44° NW 21:13:55 44° NW 21:18:57 10° NNE
ATLAS 3B R/B 3.6 21:10:00 10° NW 21:17:09 44° NE 21:17:41 44° NE
Terra 3.8 21:21:29 26° NW 21:21:29 26° NW 21:23:59 10° NNW
Cosmos 2227 Rocket 3.8 21:16:14 10° WSW 21:21:17 32° NW 21:26:21 10° NNE
CZ-4C R/B 3.1 21:15:28 10° NW 21:21:59 67° W 21:21:59 67° W
SL-16 R/B 4.0 21:28:05 10° NW 21:31:32 24° W 21:31:32 24° W
USA 215 3.9 21:57:51 51° N 21:57:51 51° N 22:03:16 10° NW
Cosmos 2263 Rocket 4.1 22:13:19 25° N 22:13:19 25° N 22:15:50 10° NNE
ATLAS 2AS CENTAUR R/B 4.0 22:29:01 34° NE 22:29:01 34° NE 22:32:48 10° NE
ATLAS CENTAUR R/B 4.4 22:42:07 10° WNW 22:49:43 36° NNW 22:49:43 36° NNW
Cosmos 2082 Rocket 4.4 22:59:26 10° N 23:02:28 21° NNE 23:02:28 21° NNE
ATLAS 3B R/B 4.1 23:00:50 10° NW 23:04:55 35° NW 23:04:55 35° NW
